DW7601 San Vito IT current weather conditions

sailwx.info

Wind from 045 at 6 knots gusting 12

Air temperature 31.1° C
Dewpoint 12.9° C

Last reported at 2016-Jun-27 13:51 UTC.
Time now 2016-Jun-27 15:02 UTC

Location: N 39°27' E 009°32'.
View on Google Maps.

See reports from other nearby stations

  
Tides and Currents Weather Stations Pressure Air Temp Water Temp Dewpoint Dewpoint Depression Visibility Wind Speed Wind Dir Waves Ship Positions
date/time (UTC)wind fromknots sea level pressurealtimeterstation pressurevisibilityair tempwater tempwave heightnotes
2016-Jun-27 13:51 045 6 gusting 12 31.1
2016-Jun-27 13:21 068 5 gusting 13 31.1
2016-Jun-27 13:11 315 5 gusting 13 31.1
2016-Jun-27 13:01 315 2 gusting 7 31.1
2016-Jun-27 12:51 292 4 gusting 7 31.1
2016-Jun-27 12:41 291 4 gusting 7 31.1
2016-Jun-27 12:31 316 2 gusting 7 31.1
2016-Jun-27 12:21 045 4 gusting 8 31.1
2016-Jun-27 12:11 068 5 gusting 7 31.1
2016-Jun-27 12:01 022 6 gusting 14 31.1
2016-Jun-27 11:51 315 5 gusting 8 31.1
2016-Jun-27 11:31 068 2 gusting 8 31.1
2016-Jun-27 11:21 315 4 gusting 6 31.1
2016-Jun-27 11:11 022 2 gusting 7 31.1
2016-Jun-27 10:51 292 2 gusting 6 31.1
2016-Jun-27 10:41 292 4 gusting 6 31.1
2016-Jun-27 10:31 068 2 gusting 6 31.1
2016-Jun-27 10:21 045 1 gusting 6 31.1
2016-Jun-27 10:11 225 0 gusting 2 30.6
2016-Jun-27 10:01 180 1 gusting 5 31.1
2016-Jun-27 09:51 292 2 gusting 6 30.6
2016-Jun-27 09:31 090 2 gusting 4 31.1
2016-Jun-27 09:21 338 2 gusting 5 30.6
2016-Jun-27 09:11 068 4 gusting 7 27.8
2016-Jun-27 09:01 090 2 gusting 7 27.8
2016-Jun-27 08:51 068 4 gusting 6 27.8
2016-Jun-27 08:21 022 1 gusting 4 27.8
2016-Jun-27 08:11 27.8
2016-Jun-27 08:01 315 2 gusting 5 27.8
2016-Jun-27 07:51 112 4 gusting 6 27.8
2016-Jun-27 07:41 022 1 gusting 5 27.8
2016-Jun-27 07:31 292 1 gusting 6 27.8
2016-Jun-27 07:21 045 1 gusting 6 27.8
2016-Jun-27 07:11 112 2 gusting 6 27.8
2016-Jun-27 07:01 023 2 gusting 7 27.8
2016-Jun-27 06:51 045 2 gusting 6 27.8
2016-Jun-27 06:31 090 4 gusting 6 27.8
2016-Jun-27 06:11 068 2 gusting 4 27.8
2016-Jun-27 06:01 068 2 gusting 6 27.8
2016-Jun-27 05:51 067 1 gusting 4 27.8
2016-Jun-27 05:41 045 1 gusting 4 27.8
2016-Jun-27 05:31 022 1 gusting 4 27.8
2016-Jun-27 05:11 068 0 gusting 1 27.8
2016-Jun-27 05:01 068 0 gusting 1 27.8
2016-Jun-27 04:51 338 0 gusting 1 27.8
2016-Jun-27 04:41 112 0 gusting 1 27.8
2016-Jun-27 04:31 315 1 gusting 2 27.8
2016-Jun-27 04:21 022 1 gusting 4 27.8
2016-Jun-27 04:11 068 1 gusting 4 27.8
2016-Jun-27 04:01 135 0 gusting 1 27.8
2016-Jun-27 03:51 068 1 gusting 2 27.8
2016-Jun-27 03:41 090 0 gusting 1 27.8
2016-Jun-27 03:31 180 0 gusting 1 27.8
2016-Jun-27 03:21 270 1 gusting 6 27.8
2016-Jun-27 03:11 315 2 gusting 6 27.8
2016-Jun-27 03:01 338 2 gusting 5 27.8
2016-Jun-27 02:51 338 2 gusting 6 27.8
2016-Jun-27 02:41 338 4 gusting 10 27.8
2016-Jun-27 02:21 022 0 gusting 7 27.8
2016-Jun-27 02:01 315 4 gusting 7 27.8
2016-Jun-27 01:41 338 5 gusting 11 27.8
2016-Jun-27 01:31 045 7 gusting 13 27.8
2016-Jun-27 01:21 022 6 gusting 13 27.8
2016-Jun-27 01:11 022 6 gusting 11 27.8
2016-Jun-27 01:01 270 6 gusting 12 37.2
2016-Jun-27 00:51 090 5 gusting 8 37.2
2016-Jun-27 00:41 045 6 gusting 10 37.2
2016-Jun-27 00:31 086 5 gusting 11 37.2
2016-Jun-27 00:21 046 5 gusting 7 37.2
2016-Jun-26 23:51 022 2 gusting 5 37.2
2016-Jun-26 23:41 338 1 gusting 4 37.2
2016-Jun-26 23:31 045 0 gusting 4 37.2
2016-Jun-26 23:21 068 0 gusting 2 37.2
2016-Jun-26 23:01 068 1 gusting 4 37.2
2016-Jun-26 22:51 022 37.2
2016-Jun-26 22:41 135 37.2
2016-Jun-26 22:31 135 0 gusting 2 37.2
2016-Jun-26 22:21 022 1 gusting 2 37.2
2016-Jun-26 22:11 022 1 gusting 4 37.2
2016-Jun-26 22:01 068 0 gusting 1 37.2
2016-Jun-26 21:51 045 1 gusting 1 37.2
2016-Jun-26 21:31 338 1 gusting 4 37.2
2016-Jun-26 21:21 112 1 gusting 2 37.2
2016-Jun-26 21:11 022 0 gusting 2 37.2
2016-Jun-26 21:01 022 0 gusting 4 37.2
2016-Jun-26 20:51 315 1 gusting 4 37.2
2016-Jun-26 20:21 338 2 gusting 6 37.2
2016-Jun-26 20:11 068 2 gusting 6 37.2
2016-Jun-26 20:01 022 1 gusting 4 37.2
2016-Jun-26 19:21 045 0 gusting 2 37.2
2016-Jun-26 19:11 090 0 gusting 1 37.2
2016-Jun-26 18:51 022 0 gusting 4 37.2
2016-Jun-26 18:41 315 0 gusting 2 37.2
2016-Jun-26 18:31 068 0 gusting 4 37.2
2016-Jun-26 18:01 338 1 gusting 4 37.2
2016-Jun-26 17:51 338 2 gusting 6 37.2
2016-Jun-26 17:41 37.2
2016-Jun-26 17:31 37.2
2016-Jun-26 17:21 270 4 gusting 6 37.2
2016-Jun-26 17:11 022 4 gusting 6 37.2
2016-Jun-26 17:01 248 1 gusting 5 37.2
2016-Jun-26 16:51 180 1 gusting 5 37.2
2016-Jun-26 16:41 37.2
2016-Jun-26 16:21 315 4 gusting 5 24.4
2016-Jun-26 16:11 022 4 gusting 6 24.4
2016-Jun-26 16:01 324 2 gusting 6 24.4
2016-Jun-26 15:41 322 4 gusting 7 24.4
2016-Jun-26 15:31 292 4 gusting 6 24.4
2016-Jun-26 15:21 338 4 gusting 6 24.4
2016-Jun-26 15:01 334 2 gusting 5 24.4
2016-Jun-26 14:51 141 1 gusting 5 24.4
2016-Jun-26 14:41 248 2 gusting 5 24.4
2016-Jun-26 14:21 158 2 gusting 6 24.4
2016-Jun-26 14:11 172 3 gusting 6 24.4
2016-Jun-26 14:01 139 2 gusting 6 24.4
2016-Jun-26 13:51 146 2 gusting 5 24.4
2016-Jun-26 13:41 162 1 gusting 2 24.4
2016-Jun-26 13:31 296 3 gusting 7 24.4
2016-Jun-26 13:21 062 2 gusting 7 24.4
2016-Jun-26 13:11 328 2 gusting 4 24.4
2016-Jun-26 13:01 304 2 gusting 5 24.4
2016-Jun-26 12:41 324 2 gusting 6 24.4
2016-Jun-26 12:31 277 2 gusting 6 24.4
2016-Jun-26 12:21 252 4 gusting 5 24.4
2016-Jun-26 12:11 347 4 gusting 6 24.4
2016-Jun-26 12:01 353 4 gusting 8 24.4
2016-Jun-26 11:51 059 3 gusting 8 24.4
2016-Jun-26 11:41 180 1 gusting 1 24.4
2016-Jun-26 11:31 083 1 gusting 4 24.4
2016-Jun-26 11:21 015 3 gusting 6 24.4
2016-Jun-26 11:11 299 2 gusting 7 24.4
2016-Jun-26 11:01 057 2 gusting 6 24.4
2016-Jun-26 10:51 329 1 gusting 5 24.4
2016-Jun-26 10:31 187 1 gusting 4 24.4
2016-Jun-26 10:21 116 2 gusting 6 24.4
2016-Jun-26 10:11 170 2 gusting 5 24.4
2016-Jun-26 10:01 135 2 gusting 5 24.4
2016-Jun-26 09:41 158 1 gusting 4 24.4
2016-Jun-26 09:31 154 2 gusting 4 24.4
2016-Jun-26 09:21 177 1 gusting 6 24.4
2016-Jun-26 09:11 305 1 gusting 2 24.4
2016-Jun-26 09:01 138 0 gusting 2 24.4
2016-Jun-26 08:51 245 0 gusting 1 24.4
2016-Jun-26 08:41 158 0 gusting 1 24.4
2016-Jun-26 08:31 011 0 gusting 2 24.4
2016-Jun-26 08:21 068 1 gusting 2 24.4
2016-Jun-26 08:01 131 2 gusting 5 24.4
2016-Jun-26 07:51 083 2 gusting 6 24.4
2016-Jun-26 07:21 090 2 gusting 5 24.4
2016-Jun-26 07:11 064 2 gusting 5 24.4
2016-Jun-26 07:01 074 2 gusting 5 24.4
2016-Jun-26 06:51 082 2 gusting 4 24.4
2016-Jun-26 06:31 090 3 gusting 6 24.4
2016-Jun-26 06:21 064 4 gusting 6 24.4
2016-Jun-26 06:11 026 2 gusting 5 24.4
2016-Jun-26 06:01 045 4 gusting 6 24.4
2016-Jun-26 05:51 089 4 gusting 7 24.4
2016-Jun-26 05:41 068 3 gusting 5 24.4
2016-Jun-26 05:31 068 2 gusting 5 24.4
2016-Jun-26 05:21 066 2 gusting 5 24.4
2016-Jun-26 05:11 050 4 gusting 6 24.4
2016-Jun-26 04:51 089 2 gusting 6 24.4
2016-Jun-26 04:41 042 1 gusting 4 24.4
2016-Jun-26 04:31 047 2 gusting 6 24.4
2016-Jun-26 04:11 021 2 gusting 6 24.4
2016-Jun-26 04:01 068 1 gusting 5 24.4
2016-Jun-26 03:51 022 1 gusting 2 24.4
2016-Jun-26 03:41 068 1 gusting 4 24.4
2016-Jun-26 03:31 066 2 gusting 2 24.4
2016-Jun-26 03:21 068 1 gusting 4 24.4
2016-Jun-26 03:01 068 1 gusting 4 24.4
2016-Jun-26 02:51 341 1 gusting 5 24.4
2016-Jun-26 02:41 062 0 gusting 1 24.4
2016-Jun-26 02:31 026 1 gusting 2 24.4
2016-Jun-26 02:21 090 0 gusting 1 24.4
2016-Jun-26 02:11 338 1 gusting 2 24.4
2016-Jun-26 02:01 068 1 gusting 4 24.4
2016-Jun-26 01:51 109 1 gusting 4 24.4
2016-Jun-26 01:41 111 0 gusting 1 24.4
2016-Jun-26 01:21 046 1 gusting 2 24.4
2016-Jun-26 01:11 087 24.4
2016-Jun-26 01:01 025 0 gusting 1 24.4
2016-Jun-26 00:41 047 1 gusting 4 24.4
2016-Jun-26 00:31 107 1 gusting 2 24.4
2016-Jun-26 00:21 047 1 gusting 4 24.4
2016-Jun-26 00:11 070 1 gusting 5 24.4
2016-Jun-25 23:51 049 1 gusting 4 24.4
2016-Jun-25 23:41 047 24.4
2016-Jun-25 23:31 066 1 gusting 4 24.4
2016-Jun-25 23:21 066 1 gusting 2 24.4
2016-Jun-25 23:11 069 1 gusting 2 24.4
2016-Jun-25 23:01 065 1 gusting 4 24.4
2016-Jun-25 22:51 046 2 gusting 5 24.4
2016-Jun-25 22:41 070 2 gusting 4 24.4
2016-Jun-25 22:31 089 2 gusting 4 24.4
2016-Jun-25 22:21 066 2 gusting 4 24.4
2016-Jun-25 22:11 153 1 gusting 2 24.4
2016-Jun-25 22:01 022 2 gusting 6 24.4
2016-Jun-25 21:51 108 2 gusting 6 24.4
2016-Jun-25 21:41 003 1 gusting 4 24.4
2016-Jun-25 21:31 022 1 gusting 2 24.4
2016-Jun-25 21:21 042 1 gusting 2 24.4
2016-Jun-25 21:11 022 0 gusting 2 24.4
2016-Jun-25 21:01 064 24.4
2016-Jun-25 20:51 135 0 gusting 0 24.4
2016-Jun-25 20:41 315 0 gusting 2 24.4
2016-Jun-25 20:31 022 1 gusting 4 24.4
2016-Jun-25 20:21 019 1 gusting 4 24.4
2016-Jun-25 20:11 067 0 gusting 2 24.4
2016-Jun-25 20:01 049 0 gusting 4 24.4
2016-Jun-25 19:51 113 0 gusting 1 24.4
2016-Jun-25 19:41 066 1 gusting 4 24.4
2016-Jun-25 19:31 068 1 gusting 4 24.4
2016-Jun-25 19:21 003 1 gusting 4 24.4
2016-Jun-25 19:11 072 24.4
2016-Jun-25 19:01 071 0 gusting 1 24.4
2016-Jun-25 18:51 084 0 gusting 5 24.4
2016-Jun-25 18:41 002 1 gusting 6 24.4
2016-Jun-25 18:31 320 1 gusting 5 24.4
2016-Jun-25 18:21 333 2 gusting 6 24.4
2016-Jun-25 18:11 335 2 gusting 6 24.4
2016-Jun-25 18:01 318 2 gusting 6 24.4
2016-Jun-25 17:51 064 1 gusting 6 24.4
2016-Jun-25 17:41 063 2 gusting 4 24.4
2016-Jun-25 17:31 317 1 gusting 5 24.4
2016-Jun-25 17:21 068 1 gusting 4 24.4
2016-Jun-25 17:11 022 1 gusting 6 24.4
2016-Jun-25 17:01 301 2 gusting 7 24.4
2016-Jun-25 16:51 043 2 gusting 6 24.4
2016-Jun-25 16:41 199 2 gusting 6 24.4
2016-Jun-25 16:31 002 0 gusting 5 24.4
2016-Jun-25 16:21 133 1 gusting 4 24.4
2016-Jun-25 16:11 221 1 gusting 4 24.4
2016-Jun-25 16:01 166 2 gusting 5 24.4
2016-Jun-25 15:51 137 1 gusting 4 24.4
2016-Jun-25 15:41 242 1 gusting 2 24.4
2016-Jun-25 15:31 180 2 gusting 6 24.4
2016-Jun-25 15:21 158 1 gusting 4 24.4
2016-Jun-25 15:11 135 1 gusting 4 24.4
2016-Jun-25 15:01 112 2 gusting 6 24.4